When you browse on this site, cookies collect data to enhance your experience and personalize the content and advertising you see.
Visit our Privacy Policy to learn more. By continuing to use the site, you agree to this use of cookies and data.
  • în România
  • Lista ţărilor
  • Pe 7 zile
  • Temperatura apei
  • Hartă satelitară
  • Meteo pe hartă
  • Widget-uri
  • user-avatar
    Intrare

    Meteo pe oră la Dalat

    Astăzi, 22 Martie, Vineri

    Timp Temperatura Precipitaţii Vânt Presiune Umiditate
    00:00 +17°C° 0 mm 0 m/s 652 mmHg 94%
    01:00 +17°C° 0 mm 0 m/s 652 mmHg 94%
    02:00 +17°C° 0 mm 0 m/s 652 mmHg 93%
    03:00 +17°C° 0 mm 0 m/s 652 mmHg 92%
    04:00 +16°C° 0 mm 0 m/s 652 mmHg 92%
    05:00 +17°C° 0 mm 0 m/s 652 mmHg 88%
    06:00 +18°C° 0 mm 0 m/s 653 mmHg 84%
    07:00 +19°C° 0 mm 0 m/s 654 mmHg 79%
    08:00 +22°C° 0 mm 0 m/s 655 mmHg 68%
    09:00 +27°C° 0 mm 1 m/s 656 mmHg 56%
    10:00 +30°C° 0 mm 1 m/s 657 mmHg 44%
    11:00 +29°C° 0.7 mm 1 m/s 656 mmHg 47%
    12:00 +29°C° 0.7 mm 1 m/s 655 mmHg 50%
    13:00 +28°C° 0.7 mm 1 m/s 654 mmHg 53%
    14:00 +27°C° 1.4 mm 1 m/s 654 mmHg 59%
    15:00 +26°C° 1.4 mm 1 m/s 653 mmHg 66%
    16:00 +25°C° 1.4 mm 1 m/s 652 mmHg 72%
    17:00 +23°C° 1 mm 1 m/s 652 mmHg 79%
    18:00 +22°C° 1 mm 1 m/s 652 mmHg 85%
    19:00 +20°C° 1 mm 1 m/s 652 mmHg 92%
    20:00 +20°C° 0.1 mm 1 m/s 652 mmHg 93%
    21:00 +20°C° 0.1 mm 1 m/s 652 mmHg 95%
    22:00 +20°C° 0.1 mm 1 m/s 653 mmHg 96%
    23:00 +19°C° 0 mm 1 m/s 653 mmHg 96%

    Mâine, 23 Martie, Sâmbătă

    Timp Temperatura Precipitaţii Vânt Presiune Umiditate
    00:00 +17°C° 0 mm 0 m/s 652 mmHg 97%
    01:00 +17°C° 0 mm 0 m/s 652 mmHg 97%
    02:00 +19°C° 0 mm 1 m/s 652 mmHg 96%
    03:00 +19°C° 0 mm 1 m/s 651 mmHg 96%
    04:00 +18°C° 0 mm 1 m/s 651 mmHg 95%
    05:00 +19°C° 0 mm 1 m/s 652 mmHg 91%
    06:00 +19°C° 0 mm 1 m/s 652 mmHg 87%
    07:00 +20°C° 0 mm 1 m/s 653 mmHg 82%
    08:00 +23°C° 0 mm 1 m/s 654 mmHg 67%
    09:00 +26°C° 0 mm 1 m/s 655 mmHg 52%
    10:00 +29°C° 0 mm 1 m/s 656 mmHg 36%
    11:00 +30°C° 0 mm 2 m/s 656 mmHg 35%
    12:00 +31°C° 0 mm 2 m/s 656 mmHg 33%
    13:00 +32°C° 0 mm 2 m/s 655 mmHg 32%
    14:00 +30°C° 0.3 mm 2 m/s 654 mmHg 41%
    15:00 +28°C° 0.3 mm 2 m/s 653 mmHg 50%
    16:00 +26°C° 0.3 mm 2 m/s 652 mmHg 59%
    17:00 +24°C° 1 mm 2 m/s 652 mmHg 69%
    18:00 +23°C° 1 mm 1 m/s 652 mmHg 79%
    19:00 +21°C° 1 mm 1 m/s 652 mmHg 90%
    20:00 +21°C° 0.1 mm 1 m/s 652 mmHg 91%
    21:00 +20°C° 0.1 mm 1 m/s 653 mmHg 93%
    22:00 +20°C° 0.1 mm 1 m/s 653 mmHg 94%
    23:00 +20°C° 0 mm 1 m/s 653 mmHg 94%

    Poimâine, 24 Martie, Duminică

    Timp Temperatura Precipitaţii Vânt Presiune Umiditate
    00:00 +19°C° 0 mm 1 m/s 653 mmHg 95%
    01:00 +19°C° 0 mm 1 m/s 652 mmHg 95%
    02:00 +19°C° 0 mm 1 m/s 652 mmHg 96%
    03:00 +19°C° 0 mm 1 m/s 652 mmHg 96%
    04:00 +19°C° 0 mm 1 m/s 651 mmHg 97%
    05:00 +19°C° 0 mm 1 m/s 652 mmHg 93%
    06:00 +20°C° 0 mm 1 m/s 653 mmHg 90%
    07:00 +20°C° 0 mm 1 m/s 653 mmHg 87%
    08:00 +23°C° 0 mm 1 m/s 654 mmHg 74%
    09:00 +25°C° 0 mm 2 m/s 655 mmHg 61%
    10:00 +28°C° 0 mm 2 m/s 656 mmHg 48%
    11:00 +28°C° 0.1 mm 2 m/s 656 mmHg 46%
    12:00 +29°C° 0.1 mm 2 m/s 655 mmHg 45%
    13:00 +30°C° 0.1 mm 2 m/s 655 mmHg 44%
    14:00 +28°C° 0.5 mm 2 m/s 654 mmHg 51%
    15:00 +27°C° 0.5 mm 2 m/s 653 mmHg 59%
    16:00 +25°C° 0.5 mm 2 m/s 652 mmHg 67%
    17:00 +24°C° 0.3 mm 1 m/s 652 mmHg 73%
    18:00 +22°C° 0.3 mm 1 m/s 652 mmHg 80%
    19:00 +21°C° 0.3 mm 1 m/s 652 mmHg 86%
    20:00 +20°C° 0.1 mm 1 m/s 653 mmHg 89%
    21:00 +20°C° 0.1 mm 1 m/s 653 mmHg 92%
    22:00 +19°C° 0.1 mm 1 m/s 654 mmHg 94%
    23:00 +19°C° 0 mm 1 m/s 653 mmHg 93%

    25 Martie, Luni

    Timp Temperatura Precipitaţii Vânt Presiune Umiditate
    00:00 +18°C° 0 mm 1 m/s 653 mmHg 91%
    01:00 +18°C° 0 mm 1 m/s 652 mmHg 89%
    02:00 +18°C° 0 mm 1 m/s 652 mmHg 88%
    03:00 +16°C° 0 mm 1 m/s 651 mmHg 86%
    04:00 +16°C° 0 mm 1 m/s 651 mmHg 84%
    05:00 +18°C° 0 mm 1 m/s 652 mmHg 82%
    06:00 +19°C° 0 mm 1 m/s 653 mmHg 79%
    07:00 +20°C° 0 mm 1 m/s 654 mmHg 77%
    08:00 +23°C° 0 mm 1 m/s 655 mmHg 66%
    09:00 +25°C° 0 mm 1 m/s 656 mmHg 55%
    10:00 +28°C° 0 mm 2 m/s 657 mmHg 44%
    11:00 +29°C° 0 mm 2 m/s 657 mmHg 41%
    12:00 +30°C° 0 mm 2 m/s 656 mmHg 38%
    13:00 +31°C° 0 mm 2 m/s 656 mmHg 35%
    14:00 +30°C° 0 mm 2 m/s 655 mmHg 41%
    15:00 +28°C° 0 mm 2 m/s 654 mmHg 48%
    16:00 +26°C° 0 mm 2 m/s 653 mmHg 54%
    17:00 +24°C° 0 mm 1 m/s 653 mmHg 62%
    18:00 +22°C° 0 mm 1 m/s 653 mmHg 70%
    19:00 +20°C° 0 mm 1 m/s 653 mmHg 78%
    20:00 +19°C° 0 mm 1 m/s 653 mmHg 81%
    21:00 +19°C° 0 mm 1 m/s 654 mmHg 85%
    22:00 +18°C° 0 mm 1 m/s 654 mmHg 88%
    23:00 +18°C° 0 mm 1 m/s 653 mmHg 89%

    26 Martie, Marţi

    Timp Temperatura Precipitaţii Vânt Presiune Umiditate
    00:00 +16°C° 0 mm 1 m/s 653 mmHg 89%
    01:00 +16°C° 0 mm 1 m/s 653 mmHg 89%
    02:00 +16°C° 0 mm 1 m/s 652 mmHg 87%
    03:00 +16°C° 0 mm 1 m/s 652 mmHg 85%
    04:00 +16°C° 0 mm 1 m/s 652 mmHg 83%
    05:00 +18°C° 0 mm 1 m/s 653 mmHg 79%
    06:00 +19°C° 0 mm 1 m/s 654 mmHg 75%
    07:00 +20°C° 0 mm 1 m/s 655 mmHg 71%
    08:00 +23°C° 0 mm 1 m/s 656 mmHg 61%
    09:00 +26°C° 0 mm 2 m/s 657 mmHg 50%
    10:00 +29°C° 0 mm 2 m/s 658 mmHg 40%
    11:00 +30°C° 0 mm 2 m/s 657 mmHg 35%
    12:00 +31°C° 0 mm 2 m/s 657 mmHg 30%
    13:00 +32°C° 0 mm 2 m/s 656 mmHg 26%
    14:00 +31°C° 0 mm 2 m/s 656 mmHg 30%
    15:00 +30°C° 0 mm 3 m/s 655 mmHg 35%
    16:00 +29°C° 0 mm 3 m/s 654 mmHg 40%
    17:00 +26°C° 0 mm 2 m/s 654 mmHg 55%
    18:00 +23°C° 0 mm 2 m/s 654 mmHg 71%
    19:00 +20°C° 0 mm 1 m/s 653 mmHg 86%
    20:00 +20°C° 0 mm 1 m/s 654 mmHg 89%
    21:00 +19°C° 0 mm 1 m/s 654 mmHg 92%
    22:00 +19°C° 0 mm 1 m/s 654 mmHg 94%
    23:00 +18°C° 0 mm 1 m/s 654 mmHg 92%

    27 Martie, Miercuri

    Timp Temperatura Precipitaţii Vânt Presiune Umiditate
    00:00 +16°C° 0 mm 1 m/s 653 mmHg 89%
    01:00 +16°C° 0 mm 1 m/s 653 mmHg 86%
    02:00 +15°C° 0 mm 1 m/s 652 mmHg 83%
    03:00 +15°C° 0 mm 1 m/s 652 mmHg 79%
    04:00 +15°C° 0 mm 1 m/s 652 mmHg 76%
    05:00 +16°C° 0 mm 1 m/s 653 mmHg 71%
    06:00 +18°C° 0 mm 1 m/s 653 mmHg 67%
    07:00 +20°C° 0 mm 1 m/s 654 mmHg 62%
    08:00 +23°C° 0 mm 1 m/s 655 mmHg 50%
    09:00 +26°C° 0 mm 1 m/s 656 mmHg 37%
    10:00 +29°C° 0 mm 2 m/s 657 mmHg 25%
    11:00 +30°C° 0 mm 2 m/s 657 mmHg 25%
    12:00 +31°C° 0 mm 2 m/s 657 mmHg 24%
    13:00 +32°C° 0 mm 2 m/s 656 mmHg 24%
    14:00 +31°C° 0 mm 2 m/s 656 mmHg 29%
    15:00 +30°C° 0 mm 2 m/s 655 mmHg 33%
    16:00 +29°C° 0 mm 2 m/s 654 mmHg 38%
    17:00 +27°C° 0 mm 2 m/s 654 mmHg 53%
    18:00 +24°C° 0 mm 1 m/s 653 mmHg 67%
    19:00 +21°C° 0 mm 1 m/s 653 mmHg 82%
    20:00 +20°C° 0 mm 1 m/s 653 mmHg 86%
    21:00 +20°C° 0 mm 1 m/s 653 mmHg 90%
    22:00 +19°C° 0 mm 1 m/s 653 mmHg 94%
    23:00 +19°C° 0 mm 1 m/s 653 mmHg 94%
    Arată mai mult